| time (UTC) | temp F | wind direction | speed MPH | gust MPH | rain 1hr in | rain 24hr in | rain mn in | humidity % | barometer mb |
| 20260504130449 | 58 | 146 | 1.0 | 7.0 | 0.00 | 0.00 | 0.00 | 62 | 1001.8 |
| 20260504110449 | 51 | 203 | 0.0 | 0.0 | 0.00 | 0.00 | 0.00 | 67 | 1002.6 |
| 20260504100449 | 52 | 148 | 0.0 | 1.0 | 0.00 | 0.00 | 0.00 | 65 | 1003.2 |
| 20260504081950 | 51 | 160 | 0.0 | 0.0 | 0.00 | 0.00 | 0.00 | 67 | 1004.2 |
| 20260504081450 | 51 | 160 | 0.0 | 0.0 | 0.00 | 0.00 | 0.00 | 65 | 1004.2 |
| 20260504080950 | 52 | 160 | 0.0 | 0.0 | 0.00 | 0.00 | 0.00 | 65 | 1004.4 |
| 20260504080450 | 52 | 160 | 0.0 | 0.0 | 0.00 | 0.00 | 0.00 | 64 | 1004.4 |
| 20260504050451 | 52 | 211 | 0.0 | 0.0 | 0.00 | 0.00 | 0.00 | 65 | 1006.3 |
| 20260504045951 | 52 | 211 | 0.0 | 0.0 | 0.00 | 0.00 | 0.00 | 65 | 1006.4 |
| 20260504045451 | 52 | 211 | 0.0 | 0.0 | 0.00 | 0.00 | 0.00 | 66 | 1006.3 |
| 20260504044951 | 52 | 211 | 0.0 | 0.0 | 0.00 | 0.00 | 0.00 | 64 | 1006.4 |
| 20260504044451 | 52 | 211 | 0.0 | 0.0 | 0.00 | 0.00 | 0.00 | 64 | 1006.5 |
| 20260504043951 | 53 | 211 | 0.0 | 0.0 | 0.00 | 0.00 | 0.00 | 63 | 1006.6 |
| 20260504043451 | 53 | 212 | 0.0 | 0.0 | 0.00 | 0.00 | 0.00 | 62 | 1006.6 |
| 20260504042951 | 53 | 211 | 0.0 | 0.0 | 0.00 | 0.00 | 0.00 | 61 | 1006.7 |
| 20260504042451 | 54 | 211 | 0.0 | 0.0 | 0.00 | 0.00 | 0.00 | 60 | 1006.7 |
| 20260504041951 | 55 | 211 | 0.0 | 0.0 | 0.00 | 0.00 | 0.00 | 59 | 1006.8 |
| 20260504041451 | 55 | 211 | 0.0 | 0.0 | 0.00 | 0.00 | 0.00 | 57 | 1006.8 |
| 20260504040951 | 55 | 211 | 0.0 | 0.0 | 0.00 | 0.00 | 0.00 | 58 | 1006.9 |
| 20260504040451 | 55 | 211 | 0.0 | 0.0 | 0.00 | 0.00 | 0.00 | 60 | 1006.9 |
| 20260504035951 | 55 | 211 | 0.0 | 0.0 | 0.00 | 0.00 | 0.00 | 59 | 1006.9 |
| 20260504035451 | 55 | 211 | 0.0 | 0.0 | 0.00 | 0.00 | 0.00 | 58 | 1006.9 |
| 20260504034951 | 55 | 211 | 0.0 | 0.0 | 0.00 | 0.00 | 0.00 | 58 | 1007.1 |
| 20260504034451 | 55 | 211 | 0.0 | 0.0 | 0.00 | 0.00 | 0.00 | 58 | 1007.2 |
| 20260504033951 | 55 | 211 | 0.0 | 0.0 | 0.00 | 0.00 | 0.00 | 57 | 1007.2 |
| 20260504033451 | 56 | 211 | 0.0 | 0.0 | 0.00 | 0.00 | 0.00 | 57 | 1007.3 |
| 20260504032951 | 56 | 211 | 0.0 | 0.0 | 0.00 | 0.00 | 0.00 | 56 | 1007.3 |
| 20260504032451 | 56 | 212 | 0.0 | 0.0 | 0.00 | 0.00 | 0.00 | 55 | 1007.3 |
| 20260504031951 | 56 | 211 | 0.0 | 0.0 | 0.00 | 0.00 | 0.00 | 55 | 1007.4 |
| 20260504031451 | 56 | 211 | 0.0 | 0.0 | 0.00 | 0.00 | 0.00 | 54 | 1007.4 |
| 20260504030951 | 57 | 211 | 0.0 | 0.0 | 0.00 | 0.00 | 0.00 | 54 | 1007.4 |
| 20260504030451 | 57 | 211 | 0.0 | 0.0 | 0.00 | 0.00 | 0.00 | 53 | 1007.4 |
| 20260504025951 | 57 | 211 | 0.0 | 0.0 | 0.00 | 0.00 | 0.00 | 52 | 1007.4 |
| 20260504025451 | 58 | 213 | 0.0 | 0.0 | 0.00 | 0.00 | 0.00 | 52 | 1007.4 |
| 20260504024951 | 58 | 210 | 0.0 | 0.0 | 0.00 | 0.00 | 0.00 | 51 | 1007.4 |
| 20260504024451 | 59 | 210 | 0.0 | 0.0 | 0.00 | 0.00 | 0.00 | 49 | 1007.4 |
| 20260504023951 | 59 | 210 | 0.0 | 0.0 | 0.00 | 0.00 | 0.00 | 47 | 1007.4 |
| 20260504023451 | 59 | 210 | 0.0 | 0.0 | 0.00 | 0.00 | 0.00 | 47 | 1007.4 |
| 20260504022951 | 59 | 210 | 0.0 | 0.0 | 0.00 | 0.00 | 0.00 | 47 | 1007.3 |
| 20260504022451 | 59 | 210 | 0.0 | 0.0 | 0.00 | 0.00 | 0.00 | 47 | 1007.3 |
| 20260504021951 | 59 | 210 | 0.0 | 0.0 | 0.00 | 0.00 | 0.00 | 47 | 1007.2 |
| 20260504021451 | 60 | 210 | 0.0 | 0.0 | 0.00 | 0.00 | 0.00 | 46 | 1007.2 |
| 20260504020951 | 60 | 252 | 0.0 | 0.0 | 0.00 | 0.00 | 0.00 | 46 | 1007.1 |
| 20260504020451 | 60 | 266 | 0.0 | 0.0 | 0.00 | 0.00 | 0.00 | 48 | 1007.2 |
| 20260504015951 | 60 | 280 | 0.0 | 0.0 | 0.00 | 0.00 | 0.00 | 47 | 1007.2 |
| 20260504015451 | 61 | 279 | 0.0 | 0.0 | 0.00 | 0.00 | 0.00 | 44 | 1007.2 |
| 20260504014951 | 62 | 280 | 0.0 | 0.0 | 0.00 | 0.00 | 0.00 | 42 | 1007.2 |
| 20260504014452 | 63 | 280 | 0.0 | 0.0 | 0.00 | 0.00 | 0.00 | 41 | 1007.1 |
| 20260504013952 | 64 | 280 | 0.0 | 0.0 | 0.00 | 0.00 | 0.00 | 38 | 1007.1 |
| 20260504013452 | 65 | 280 | 0.0 | 0.0 | 0.00 | 0.00 | 0.00 | 35 | 1007.1 |
| 20260504012952 | 66 | 280 | 0.0 | 0.0 | 0.00 | 0.00 | 0.00 | 34 | 1007.1 |
| 20260504012452 | 66 | 279 | 0.0 | 0.0 | 0.00 | 0.00 | 0.00 | 32 | 1007.1 |
| 20260504011952 | 67 | 280 | 0.0 | 0.0 | 0.00 | 0.00 | 0.00 | 31 | 1007.0 |
| 20260504011452 | 68 | 280 | 0.0 | 0.0 | 0.00 | 0.00 | 0.00 | 29 | 1007.1 |
| 20260504010952 | 68 | 280 | 0.0 | 0.0 | 0.00 | 0.00 | 0.00 | 29 | 1007.1 |
| 20260504010452 | 69 | 281 | 0.0 | 0.0 | 0.00 | 0.00 | 0.00 | 28 | 1007.0 |
| 20260504005952 | 69 | 281 | 0.0 | 0.0 | 0.00 | 0.00 | 0.00 | 27 | 1007.0 |
| 20260504005452 | 70 | 281 | 0.0 | 0.0 | 0.00 | 0.00 | 0.00 | 27 | 1007.0 |
| 20260504004952 | 71 | 288 | 0.0 | 0.0 | 0.00 | 0.00 | 0.00 | 26 | 1007.1 |
| 20260504004452 | 72 | 297 | 0.0 | 0.0 | 0.00 | 0.00 | 0.00 | 25 | 1007.0 |
| 20260504003952 | 72 | 276 | 0.0 | 0.0 | 0.00 | 0.00 | 0.00 | 25 | 1007.1 |
| 20260504003452 | 72 | 291 | 1.0 | 1.0 | 0.00 | 0.00 | 0.00 | 25 | 1007.1 |
| 20260504002952 | 73 | 286 | 1.0 | 3.0 | 0.00 | 0.00 | 0.00 | 24 | 1007.1 |
| 20260504002452 | 73 | 280 | 1.0 | 3.0 | 0.00 | 0.00 | 0.00 | 25 | 1007.1 |
| 20260504001952 | 73 | 284 | 2.0 | 4.0 | 0.00 | 0.00 | 0.00 | 25 | 1007.1 |
| 20260504001452 | 73 | 296 | 2.0 | 5.0 | 0.00 | 0.00 | 0.00 | 24 | 1007.1 |
| 20260504000952 | 73 | 276 | 2.0 | 7.0 | 0.00 | 0.00 | 0.00 | 23 | 1007.1 |
| 20260504000452 | 74 | 289 | 2.0 | 6.0 | 0.00 | 0.00 | 0.00 | 26 | 1007.1 |
| 20260503235952 | 74 | 298 | 2.0 | 7.0 | 0.00 | 0.00 | 0.00 | 24 | 1007.1 |
| 20260503235452 | 74 | 295 | 3.0 | 7.0 | 0.00 | 0.00 | 0.00 | 25 | 1007.2 |
| 20260503234952 | 74 | 305 | 3.0 | 7.0 | 0.00 | 0.00 | 0.00 | 24 | 1007.2 |
| 20260503234452 | 74 | 284 | 2.0 | 9.0 | 0.00 | 0.00 | 0.00 | 24 | 1007.2 |
| 20260503233952 | 74 | 277 | 3.0 | 9.0 | 0.00 | 0.00 | 0.00 | 24 | 1007.1 |
| 20260503233452 | 74 | 300 | 4.0 | 9.0 | 0.00 | 0.00 | 0.00 | 23 | 1007.1 |
| 20260503232952 | 74 | 294 | 3.0 | 8.0 | 0.00 | 0.00 | 0.00 | 24 | 1007.1 |
| 20260503232452 | 74 | 253 | 3.0 | 10.0 | 0.00 | 0.00 | 0.00 | 24 | 1007.1 |
| 20260503231952 | 74 | 300 | 4.0 | 5.0 | 0.00 | 0.00 | 0.00 | 24 | 1007.1 |
| 20260503231452 | 74 | 289 | 4.0 | 9.0 | 0.00 | 0.00 | 0.00 | 24 | 1007.2 |
| 20260503230952 | 74 | 305 | 2.0 | 11.0 | 0.00 | 0.00 | 0.00 | 25 | 1007.2 |
| 20260503230452 | 74 | 281 | 2.0 | 7.0 | 0.00 | 0.00 | 0.00 | 25 | 1007.2 |
| 20260503225952 | 74 | 289 | 3.0 | 7.0 | 0.00 | 0.00 | 0.00 | 24 | 1007.1 |
| 20260503225452 | 74 | 300 | 4.0 | 7.0 | 0.00 | 0.00 | 0.00 | 25 | 1007.3 |
| 20260503224952 | 74 | 314 | 4.0 | 9.0 | 0.00 | 0.00 | 0.00 | 24 | 1007.3 |
| 20260503224452 | 74 | 304 | 3.0 | 8.0 | 0.00 | 0.00 | 0.00 | 24 | 1007.3 |
| 20260503223952 | 74 | 308 | 3.0 | 10.0 | 0.00 | 0.00 | 0.00 | 25 | 1007.2 |
| 20260503223452 | 74 | 302 | 2.0 | 7.0 | 0.00 | 0.00 | 0.00 | 25 | 1007.2 |
| 20260503222952 | 74 | 302 | 2.0 | 8.0 | 0.00 | 0.00 | 0.00 | 25 | 1007.3 |
| 20260503222452 | 74 | 311 | 2.0 | 6.0 | 0.00 | 0.00 | 0.00 | 26 | 1007.3 |
| 20260503221952 | 73 | 293 | 3.0 | 8.0 | 0.00 | 0.00 | 0.00 | 25 | 1007.3 |
| 20260503221452 | 74 | 304 | 2.0 | 8.0 | 0.00 | 0.00 | 0.00 | 26 | 1007.3 |
| 20260503220952 | 74 | 308 | 1.0 | 5.0 | 0.00 | 0.00 | 0.00 | 27 | 1007.3 |
| 20260503220452 | 74 | 338 | 1.0 | 6.0 | 0.00 | 0.00 | 0.00 | 26 | 1007.2 |
| 20260503215952 | 74 | 296 | 1.0 | 4.0 | 0.00 | 0.00 | 0.00 | 29 | 1007.2 |
| 20260503215453 | 74 | 311 | 3.0 | 7.0 | 0.00 | 0.00 | 0.00 | 28 | 1007.2 |
| 20260503214953 | 73 | 304 | 3.0 | 6.0 | 0.00 | 0.00 | 0.00 | 27 | 1007.3 |
| 20260503214453 | 73 | 296 | 3.0 | 6.0 | 0.00 | 0.00 | 0.00 | 26 | 1007.2 |
| 20260503213953 | 74 | 307 | 2.0 | 11.0 | 0.00 | 0.00 | 0.00 | 26 | 1007.3 |
| 20260503213453 | 74 | 300 | 1.0 | 6.0 | 0.00 | 0.00 | 0.00 | 27 | 1007.2 |
| 20260503212953 | 74 | 304 | 4.0 | 7.0 | 0.00 | 0.00 | 0.00 | 27 | 1007.2 |
| 20260503212453 | 74 | 277 | 5.0 | 10.0 | 0.00 | 0.00 | 0.00 | 27 | 1007.2 |
| 20260503211953 | 74 | 284 | 5.0 | 11.0 | 0.00 | 0.00 | 0.00 | 27 | 1007.2 |
| 20260503211453 | 74 | 281 | 5.0 | 12.0 | 0.00 | 0.00 | 0.00 | 27 | 1007.2 |
| 20260503210953 | 75 | 291 | 4.0 | 10.0 | 0.00 | 0.00 | 0.00 | 28 | 1007.3 |
| 20260503210453 | 75 | 297 | 4.0 | 8.0 | 0.00 | 0.00 | 0.00 | 26 | 1007.3 |
| 20260503205953 | 75 | 309 | 4.0 | 12.0 | 0.00 | 0.00 | 0.00 | 26 | 1007.3 |
| 20260503205453 | 75 | 302 | 3.0 | 7.0 | 0.00 | 0.00 | 0.00 | 26 | 1007.3 |
| 20260503204953 | 75 | 306 | 3.0 | 11.0 | 0.00 | 0.00 | 0.00 | 27 | 1007.5 |
| 20260503204453 | 75 | 311 | 4.0 | 11.0 | 0.00 | 0.00 | 0.00 | 26 | 1007.6 |
| 20260503203953 | 75 | 284 | 5.0 | 13.0 | 0.00 | 0.00 | 0.00 | 28 | 1007.6 |
| 20260503203453 | 75 | 304 | 4.0 | 11.0 | 0.00 | 0.00 | 0.00 | 29 | 1007.6 |
| 20260503202953 | 74 | 321 | 3.0 | 8.0 | 0.00 | 0.00 | 0.00 | 26 | 1007.6 |
| 20260503202453 | 74 | 302 | 3.0 | 5.0 | 0.00 | 0.00 | 0.00 | 29 | 1007.6 |
| 20260503201953 | 73 | 318 | 5.0 | 10.0 | 0.00 | 0.00 | 0.00 | 28 | 1007.6 |
| 20260503201453 | 73 | 296 | 6.0 | 11.0 | 0.00 | 0.00 | 0.00 | 34 | 1007.6 |
| 20260503200953 | 72 | 249 | 7.0 | 16.0 | 0.00 | 0.00 | 0.00 | 36 | 1007.6 |
| 20260503200453 | 72 | 293 | 7.0 | 13.0 | 0.00 | 0.00 | 0.00 | 35 | 1007.7 |
| 20260503195953 | 72 | 291 | 6.0 | 16.0 | 0.00 | 0.00 | 0.00 | 37 | 1007.7 |
| 20260503195453 | 71 | 295 | 6.0 | 13.0 | 0.00 | 0.00 | 0.00 | 38 | 1007.9 |
| 20260503194953 | 71 | 214 | 6.0 | 13.0 | 0.00 | 0.00 | 0.00 | 39 | 1008.0 |
| 20260503194453 | 71 | 242 | 6.0 | 12.0 | 0.00 | 0.00 | 0.00 | 42 | 1008.0 |
| 20260503193953 | 70 | 139 | 7.0 | 11.0 | 0.00 | 0.00 | 0.00 | 40 | 1008.0 |
| 20260503193453 | 71 | 290 | 6.0 | 12.0 | 0.00 | 0.00 | 0.00 | 42 | 1008.1 |
| 20260503192953 | 71 | 263 | 6.0 | 10.0 | 0.00 | 0.00 | 0.00 | 40 | 1008.0 |
| 20260503192453 | 70 | 285 | 6.0 | 12.0 | 0.00 | 0.00 | 0.00 | 44 | 1008.1 |
| 20260503191953 | 70 | 250 | 6.0 | 15.0 | 0.00 | 0.00 | 0.00 | 42 | 1007.9 |
| 20260503191453 | 69 | 215 | 6.0 | 11.0 | 0.00 | 0.00 | 0.00 | 45 | 1008.0 |
| 20260503190953 | 68 | 275 | 7.0 | 13.0 | 0.00 | 0.00 | 0.00 | 46 | 1008.3 |
| 20260503190453 | 68 | 281 | 6.0 | 14.0 | 0.00 | 0.00 | 0.00 | 46 | 1008.3 |
| 20260503185953 | 67 | 293 | 5.0 | 14.0 | 0.00 | 0.00 | 0.00 | 45 | 1008.3 |
| 20260503185453 | 67 | 248 | 6.0 | 13.0 | 0.00 | 0.00 | 0.00 | 45 | 1008.2 |
| 20260503184953 | 67 | 263 | 7.0 | 12.0 | 0.00 | 0.00 | 0.00 | 45 | 1008.2 |
| 20260503184453 | 67 | 163 | 7.0 | 12.0 | 0.00 | 0.00 | 0.00 | 48 | 1008.3 |
| 20260503183953 | 67 | 256 | 8.0 | 19.0 | 0.00 | 0.00 | 0.00 | 46 | 1008.5 |
| 20260503183453 | 68 | 268 | 8.0 | 20.0 | 0.00 | 0.00 | 0.00 | 44 | 1008.5 |
| 20260503182953 | 69 | 225 | 7.0 | 16.0 | 0.00 | 0.00 | 0.00 | 45 | 1008.4 |
| 20260503182453 | 69 | 284 | 6.0 | 12.0 | 0.00 | 0.00 | 0.00 | 45 | 1008.4 |
| 20260503181954 | 69 | 232 | 4.0 | 12.0 | 0.00 | 0.00 | 0.00 | 44 | 1008.2 |
| 20260503181453 | 69 | 267 | 4.0 | 12.0 | 0.00 | 0.00 | 0.00 | 44 | 1008.2 |
| 20260503180953 | 68 | 238 | 2.0 | 8.0 | 0.00 | 0.00 | 0.00 | 45 | 1008.2 |
| 20260503180454 | 68 | 266 | 3.0 | 6.0 | 0.00 | 0.00 | 0.00 | 44 | 1008.0 |
| 20260503175954 | 68 | 201 | 4.0 | 8.0 | 0.00 | 0.00 | 0.00 | 42 | 1008.0 |
| 20260503175454 | 68 | 249 | 5.0 | 12.0 | 0.00 | 0.00 | 0.00 | 41 | 1008.4 |
| 20260503174954 | 68 | 297 | 6.0 | 11.0 | 0.00 | 0.00 | 0.00 | 41 | 1008.8 |
| 20260503174454 | 68 | 288 | 8.0 | 15.0 | 0.00 | 0.00 | 0.00 | 41 | 1009.2 |
| 20260503173954 | 68 | 291 | 7.0 | 16.0 | 0.00 | 0.00 | 0.00 | 40 | 1009.0 |
| 20260503173454 | 69 | 238 | 6.0 | 15.0 | 0.00 | 0.00 | 0.00 | 41 | 1008.8 |
| 20260503172954 | 69 | 200 | 6.0 | 12.0 | 0.00 | 0.00 | 0.00 | 42 | 1009.0 |
| 20260503172454 | 68 | 253 | 5.0 | 12.0 | 0.00 | 0.00 | 0.00 | 44 | 1008.9 |
| 20260503171954 | 68 | 263 | 5.0 | 11.0 | 0.00 | 0.00 | 0.00 | 46 | 1009.0 |
| 20260503171454 | 68 | 284 | 6.0 | 12.0 | 0.00 | 0.00 | 0.00 | 43 | 1009.1 |
| 20260503170954 | 67 | 285 | 6.0 | 13.0 | 0.00 | 0.00 | 0.00 | 43 | 1009.1 |
| 20260503170454 | 67 | 284 | 5.0 | 10.0 | 0.00 | 0.00 | 0.00 | 45 | 1009.2 |
| 20260503150954 | 61 | 243 | 6.0 | 11.0 | 0.00 | 0.00 | 0.00 | 50 | 1009.6 |
| 20260503150454 | 60 | 224 | 7.0 | 16.0 | 0.00 | 0.00 | 0.00 | 49 | 1009.7 |